Location: Buckland
(65.9785°N, 161.1281°W)
Time: 23:47:32
(UTC+00:00)

Transit 4A - Pass Details

Date: 01 December 2020
Orbit: 864 x 980 km, 66.8° (Epoch: 20 January)

Event Time Altitude Azimuth Distance (km) Brightness Sun altitude
Rises 20:18:15 0° 234° (SW) 3,669 11.1 -1.6°
Reaches altitude 10° 20:20:48 10° 232° (SW) 2,730 10.5 -1.5°
Maximum altitude 20:27:11 73° 150° (SSE) 1,030 8.5 -1.2°
Drops below altitude 10° 20:33:35 10° 67° (ENE) 2,735 10.4 -0.9°
Sets 20:36:09 0° 66° (ENE) 3,675 11.1 -0.7°
